Location: Aulagny
(45.1643°N, 4.3096°E)
Time: 19:28:00
(UTC+00:00)

Lacrosse 5 - Pass Details

Date: 21 October 2019
Orbit: 715 x 724 km, 57.0° (Epoch: 27 October)

Event Time Altitude Azimuth Distance (km) Brightness Sun altitude
Rises 20:00:35 0° 298° (WNW) 3,121 6.2 -34.2°
Reaches altitude 10° 20:03:45 10° 278° (W) 2,196 5.1 -34.7°
Enters shadow 20:06:45 16° 241° (WSW) 1,791 4.2 -35.2°
